カタログに戻る

N-1 R/B

運用中LEO
NORAD 13493·ROCKET BODY·🇯🇵 Japan

打ち上げ Sep 3, 1982 から Tanegashima Space Center

Loading…

次のパス (今後24時間)

TLE

最新Source: Space-Track

元期: Sep 14, 2026, 06:24 UTC

1 13493U 82087B   26257.26724295 -.00000059  00000-0  75651-4 0  9997
2 13493  44.6253 340.3283 0173786 197.7767 183.7525 13.44781127163307

AllMySatでN-1 R/Bをリアルタイム追跡

Download on the App Store